User: anonymous   Login
Location: Pine Mountain Observatory
(43.7910°N, 120.9377°W)
Time: 00:57:50
(UTC-07:00)
Language:

Cosmos 1867 - Orbit

View from above orbital plane
View from above orbital plane
View from above satellite
View from above satellite

Ground track
Ground track

The orbit data is extracted from the following two-line orbital elements,

1 18187U 87060A   17229.09869405 -.00000087  00000-0  51708-5 0  9990
2 18187  65.0104  58.3394 0013679 266.7688  93.1831 14.31087113572710
Epoch (UTC): 17 August 2017 02:22:07
Eccentricity: 0.0013679
inclination: 65.0104°
perigee height: 778 km
apogee height: 798 km
right ascension of ascending node: 58.3394°
argument of perigee: 266.7688°
revolutions per day: 14.31087113
mean anomaly at epoch: 93.1831°
orbit number at epoch: 57271

The dashed part of the orbit path shows where the satellite is in the earth's shadow,  

DLR